Weather Roundup
Issued by NWS Corpus Christi, TX

Home | Current Version | Previous Version | Text Only | Print | Product List | Glossary On
Versions: 1 2 3 4 5 6 7 8 9 10 11 12 13 14 15 16 17 18 19 20 21 22 23 24 25 26 27 28 29 30 31 32 33 34 35 36 37 38 39 40 41 42 43 44 45 46 47 48 49 50
000
ASUS44 KCRP 261910
HRRCRP

SOUTH TEXAS REGIONAL WEATHER ROUNDUP
NATIONAL WEATHER SERVICE CORPUS CHRISTI TX
100 PM CST FRI DEC 26 2014


TXZ229>244-262000-
...CORPUS CHRISTI AREA OBSERVATIONS...

CITY           SKY/WX    TMP DP  RH WIND       PRES   REMARKS
CORPUS CHRISTI PTSUNNY   76  63  64 S22G32    29.89F
NAS CORPUS CHR PTSUNNY   73  65  75 SE17G25   29.90F
ROCKPORT       CLOUDY    72  64  76 S12G20    29.92F
KINGSVILLE NAS PTSUNNY   79  65  62 S22G31    29.88F
ALICE          FAIR      80  61  52 S18G28    29.88F
FALFURRIAS     FAIR      79  60  52 S18G24    29.88F
$$

...VICTORIA AREA OBSERVATIONS...

CITY           SKY/WX    TMP DP  RH WIND       PRES   REMARKS
VICTORIA       LGT RAIN  72  67  84 S17       29.93F
BEEVILLE       CLOUDY    72  64  77 S15       29.90F
PLEASANTON     CLOUDY    71  58  63 SE7       29.90F
SAN ANTONIO    CLOUDY    67  59  75 S9        29.91F
$$

...LAREDO AREA OBSERVATIONS...

CITY           SKY/WX    TMP DP  RH WIND       PRES   REMARKS
LAREDO         SUNNY     72  54  53 S7        29.90F
COTULLA        FAIR     N/A N/A N/A S8        29.88F
DEL RIO        FAIR      64  48  56 SE8       29.86F
MCALLEN        FAIR      78  59  51 S13G20    29.88F
HEBBRONVILLE   FAIR      74  56  53 S9        29.89F
$$

...OTHER TEXAS OBSERVATIONS...

CITY           SKY/WX    TMP DP  RH WIND       PRES   REMARKS
BROWNSVILLE    PTSUNNY   77  65  66 S23G32    29.90F
HOUSTON        CLOUDY    70  61  73 S13G26    29.96F
COL. STATION   CLOUDY    65  62  90 S16G23    29.94F
AUSTIN         CLOUDY    67  61  81 S16       29.90F
WACO           CLOUDY    63  59  87 S10       29.91F
FORT WORTH     CLOUDY    58  56  93 SE7       29.90F FOG
WICHITA FALLS  FAIR      61  48  62 S12       29.85F
LUBBOCK        PTSUNNY   49  27  42 NW15      29.85S
EL PASO        CLOUDY    38  35  89 S6        29.95F
$$

...MARINE OBSERVATIONS...

STATION/POSITION TIME  SKY/WX   TEMP    WIND        PRES    VSBY  WAVE   SWELL
                                AIR SEA DIR/SP/G                  HT/PER HT/PER
                 (UTC)          (F)     (DEG/KT/KT) (MB)    (MI)  (FT/S) (FT/S)
PORT ARANSAS     1900            65 62  170/ 11/ 11 1013.6F
BUOY 90 E PORT A 1900            72 72  150/ 19/ 25 1014.5F         9/ 7
BUOY 45 SE BAFFI 1900            72 72  160/ 17/ 21 1012.3F         8/ 8
BUOY 200 E PT IS 1900            73 74  150/ 19/ 23 1015.2F         5/ 6   2/ 9
BUOY 15 E GALVES 1900            65 61  140/ 14/ 16 1015.1F         5/ 7   3/ 7
$$


USA.gov is the U.S. government's official web portal to all federal, state and local government web resources and services.